Погода Каменная Степь

Погода Каменная Степь : погода сейчас, прогноз погоды и архив. Всё, что Вы хотите узнать о погоде Каменная Степь!

Поиск расширенной информации на нашем сайте:

Другие новости

Новости СМИ2

Главная страница сайта

Новости сайта

03.07.2017

Напоминаем, что на нашем специализированном сайте Метеоцентр.Азия вы можете получить высокодетализированные автоматические прогнозы погоды по пунктам России, СНГ и мира в авиационном формате (включающие направление и скорость ветра, видимость, явления погоды, количество и форму облачности, нижнюю и верхнюю границу облачности).

Рекомендуем: Jpg столы пластиковые.

Погода Каменная Степь - сегодня

Время (UTC), дата Ветер
(°,м/с) 
Видим.   Явления Облачность Т
(°С)
Тd
(°С)
f(%) Тe
(°С)
Pmin
(гПа)
dP
(гПа)
Po
(мм)
O2
(г/м3)
Тmin Tmax R s Состояние
почвы
00 17.09.17 070 (В) 10 км    ясно 
+11.8 +5.6 66 +12  1023.9  750  289           
06 17.09.17 090 (В) 11000 м    1/0 верхняя 
[Ci fib]
+17.6 +9.2 58 +18  1024.6  0.6  751  283           
09 17.09.17 090 (В) 12000 м    4/0 верхняя 
[Ci fib]
+21.1 +9.5 47 +22  1023.6  -0.7  751  279           
12 17.09.17 090 (В) 13000 м    8/3 600 м верхняя 
[Sc|Cc]
+22.9 +7.4 37 +23  1021.9  -1.5  750  277           
18 17.09.17 070 (В) 10 км    3/0 верхняя 
[Ci fib]
+17.4 +8.9 57 +18  1020.3  -0.6  748  282           
21 17.09.17 070 (В) 10 км    ясно 
+16.6 +8 57 +17  1019.3  -1  747  282           
00 18.09.17 090 (В) 10 км    ясно 
+15.5 +7.4 58 +15  1018.3  -1.1  746  283           
03 18.09.17 140 (ЮВ) 6{10}  10 км    4/0 верхняя 
[Ci fib]
+15.8 +7.8 59 +15  1016.7  -1.5  745  283  +15         
06 18.09.17 140 (ЮВ) 10 км    9/0 средняя, верхняя 
[Ac As|Ci fib]
+18.9 +9.7 55 +21  1015.7  -0.8  745  279           
09 18.09.17 140 (ЮВ) 12000 м    8/0 верхняя 
[Cc]
+26.9 +8.8 32 +27  1014.4  -0.7  744  271           
18 18.09.17 140 (ЮВ) 10 км    3/0 верхняя 
[Ci fib]
+23.3 +6.1 33 +23  1011.6  -0.3  742  275           
21 18.09.17 140 (ЮВ) 10 км    ясно 
+21 +6.4 39 +21  1011.1  -0.7  742  276           
00 19.09.17 200 (Ю) 10 км    ясно 
+18.6 +7.4 48 +19  1012  0.7  742  279           
03 19.09.17 270 (З) 10 км    8/0 верхняя 
[Ci fib]
+16.4 +8.6 60 +18  1013.7  1.5  743  281  +16         
06 19.09.17 320 (СЗ) 10 км    4/1 600 м средняя, верхняя 
[Sc|As trans|Ci fib]
+17.7 +10.2 61 +20  1015.9  2.3  745  280  +15.6         
09 19.09.17 270 (З) 12000 м    3/0 верхняя 
[Ci fib]
+21.8 +8.4 42 +22  1016.3  0.7  745  277           
12 19.09.17 270 (З) 13000 м    4/0 верхняя 
[Ci fib]
+24 +7.1 34 +24  1016.2  745  275           
15 19.09.17 320 (СЗ) 13000 м    6/0 верхняя 
[Ci fib]
+21.8 +4.5 32 +22  1016.9  0.6  746  278    +24.2       
18 19.09.17 320 (СЗ) 10 км    3/0 верхняя 
[Ci fib]
+17.3 +4.8 44 +18  1018.7  1.3  747  282           
21 19.09.17 360 (С) 10 км    ясно 
+13.9 +5.1 55 +14  1019.5  0.5  747  286           
00 20.09.17 020 (С) 10 км    ясно 
+12.3 +5.1 61 +12  1020.1  0.5  748  287           
03 20.09.17 050 (СВ) 10 км    ясно 
+10 +5.5 74 +9  1021  0.7  748  290  +10         
06 20.09.17 050 (СВ) 11000 м    1/0 верхняя 
[Ci fib]
+14.1 +7.1 63 +14  1021.5  0.8  749  286           
09 20.09.17 050 (СВ) 12000 м    1/0 верхняя 
[Ci fib]
+20.2 +6.8 42 +20  1020.7  -0.3  749  280           
12 20.09.17 020 (С) 13000 м    ясно 
+22.1 +6.7 37 +22  1019.9  -0.7  748  278           
Время (UTC), дата Ветер
(°,м/с) 
Видим.   Явления Облачность Т
(°С)
Тd
(°С)
f(%) Тe
(°С)
Pmin
(гПа)
dP
(гПа)
Po
(мм)
O2
(г/м3)
Тmin Tmax R s Состояние
почвы

Для получения пояснительной информации подведите курсор к названию столбца.

ПОГОДА Каменная Степь - архив

Всё, что Вы хотите узнать о погоде Каменная Степь - удобно и подробно!

Выберите нужную дату (начиная с 1 января 2015* года) и нажмите кнопку "Найти".
Будут отображены архивные сводки погоды по пункту Каменная Степь, начиная с указанной даты.


Отображать данные в формате CSV (для использования в таблицах Excel)


Внимание! Наш архив погоды предназначен исключительно для личного некоммерческого использования в познавательных целях. Если Вам необходимы официальные справки о состоянии погоды (для производственных, юридических, коммерческих и т.п. целей), обращайтесь в органы Росгидромета.

*Примечание: данная дата относится к архиву по метеостанциям СССР (Россия, СНГ, Балтия).
Архив по метеостанциям Зарубежной Европы и Азии (кроме Китая) хранится 10 дней, по другим регионам земного шара (Китай, Африка, Америка, Австралия, Океания) - 1 день.

Каменная Степь - район местоположения метеостанции


Название, широта, долгота, высота метеостанции:
Каменная Степь 51.1°ш. 40.7°д. 194 м над ур. моря [Российская Федерация]

Дополнительная информация

В oтличие oт бoльшинства пoгoдных сайтoв мы публикуем пoдрoбную метеoинфoрмацию в детальнoм прoфессиoнальнoм фoрмате.

Характеристики температуры и влажнoсти вoздуха измеряются на высoте 2 м в тени вдали oт зданий и деревьев.
Скoрoсть ветра измеряется на высoте 10 м (на урoвне рoста челoвека скoрoсть ветра ниже в 1.5-2 раза). Если метеoстанция нахoдится в гoрoде или в лесу, тo скoрoсть ветра занижена на 2-4 м/с пo сравнению с oткрытым местoм. Скoрoсть ветра над акватoриями крупных рек и oзёр, а также на вершинах хoлмoв на 2-5 м/с выше, чем в oбычных услoвиях.
Атмoсфернoе давление в разных тoчках местнoсти мoжет значительнo oтличаться oт давления на метеoстанции, в зависимoсти oт услoвий рельефа (при пoдъёме на 10 м давление пoнижается примернo на 1 мм рт.ст.).